Location: Newark
(34.6501°N, 117.8502°W)
Time: 09:54:29
(UTC+00:00)

BlueWalker 3 - Pass Details

Date: 09 December 2022
Orbit: 499 x 517 km, 53.2° (Epoch: 04 February)

Event Time Altitude Azimuth Distance (km) Brightness Sun altitude
Rises 01:24:15 0° 330° (NNW) 2,623 5.7 -9.0°
Reaches altitude 10° 01:27:48 10° 3° (N) 1,728 4.4 -9.7°
Maximum altitude 01:29:17 12° 26° (NNE) 1,611 4.1 -10.0°
Enters shadow 01:30:15 11° 41° (NE) 1,657 4.0 -10.2°
